Regional Weather Roundup
Issued by NWS

Home | Current Version | Previous Version | Graphics & Text | Print | Product List | Glossary On
Versions: 1 2 3 4 5 6 7 8 9 10 11 12 13 14 15 16 17 18 19 20 21 22 23 24 25 26 27 28 29 30 31 32 33 34 35 36 37 38 39 40 41 42 43 44 45 46 47 48 49 50
808
ASUS44 KJAN 310403
RWRMS

MISSISSIPPI HOURLY WEATHER ROUNDUP
NATIONAL WEATHER SERVICE JACKSON MS
1100 PM CDT MON MAR 30 2015

NOTE: "FAIR: INDICATES FEW OR NO CLOUDS BELOW 12,000 FEET WITH NO
SIGNIFICANT WEATHER AND/OR OBSTRUCTIONS TO VISIBILITY.

MSZ001>002-007>008-010>013-018>021-025>028-034>036-310500-
NORTHWEST MISSISSIPPI

CITY           SKY/WX    TMP DP  RH WIND       PRES   REMARKS
CLARKSDALE     FAIR      59  54  82 CALM      30.10F
CLEVELAND      FAIR      62  54  75 CALM      30.09S
GREENWOOD      CLEAR     59  52  77 CALM      30.10F
GREENVILLE     NOT AVBL
OLIVE BRANCH   CLEAR     54  45  71 CALM      30.10F
OXFORD         FAIR      50  45  81 CALM      30.12F
TUNICA         CLEAR     55  52  88 SE5       30.09F
$$

MSZ003>006-009-014>017-022>024-029>033-037>039-310500-
NORTHEAST MISSISSIPPI

CITY           SKY/WX    TMP DP  RH WIND       PRES   REMARKS
COLUMBUS AFB   CLEAR     52  48  85 CALM      30.10S
CORINTH        FAIR      52  48  87 CALM      30.09F
GOLDN TRIANGLE CLEAR     61  48  63 CALM      30.10F
STARKVILLE     FAIR      54  52  94 CALM      30.11F
TUPELO         CLEAR     55  48  77 CALM      30.11S
$$

MSZ040-058-310500-
CENTRAL MISSISSIPPI

CITY           SKY/WX    TMP DP  RH WIND       PRES   REMARKS
JACKSON INTL   PTCLDY    61  57  87 CALM      30.12S
JACKSON HAWKNS CLEAR     64  59  83 CALM      30.12S
MERIDIAN KEY   CLEAR     59  58  96 CALM      30.12F
MERIDIAN NAS   PTCLDY    64  59  84 CALM      30.11F
RAYMOND        FAIR      61  55  82 MISG      30.12S
VICKSBURG      CLEAR     60  58  92 CALM      30.11F
$$

MSZ059>079-310500-
SOUTH MISSISSIPPI

CITY           SKY/WX    TMP DP  RH WIND       PRES   REMARKS
BROOKHAVEN       N/A     61  57  88 CALM      30.15S
HATTIESBURG    CLEAR     63  58  83 CALM      30.14S
MCCOMB         CLEAR     66  59  78 SW5       30.14S
NATCHEZ        CLEAR     66  55  68 S5        30.13S
PINE BELT      PTCLDY    61  54  77 CALM      30.14S
$$

MSZ080>082-310500-
COASTAL MISSISSIPPI

CITY           SKY/WX    TMP DP  RH WIND       PRES   REMARKS
BILOXI         CLEAR     70  66  88 SW8       30.15R
PASCAGOULA     CLEAR     69  64  84 SW5       30.16R
GULFPORT       CLEAR     70  64  81 SW5       30.15R
$$



USA.gov is the U.S. government's official web portal to all federal, state and local government web resources and services.